Location: Dompnac
(44.5644°N, 4.1026°E)
Time: 12:36:28
(UTC+00:00)

Cosmos 2026 Rocket - Pass Details

Date: 19 January 2021
Orbit: 940 x 1000 km, 82.9° (Epoch: 28 February)

Event Time Altitude Azimuth Distance (km) Brightness Sun altitude
Rises 20:54:45 0° 242° (WSW) 3,609 7.4 -45.7°
Reaches altitude 10° 20:58:33 10° 265° (W) 2,679 6.8 -46.3°
Maximum altitude 21:01:48 15° 298° (WNW) 2,370 6.5 -46.8°
Enters shadow 21:03:44 13° 318° (NW) 2,496 6.5 -47.2°
Exits shadow 21:08:09 - 350° (N) 3,437 7.1 -47.9°
Sets 21:08:59 0° 354° (N) 3,674 7.3 -48.0°
